Regional Weather Roundup
Issued by NWS

Home | Current Version | Previous Version | Text Only | Print | Product List | Glossary On
Versions: 1 2 3 4 5 6 7 8 9 10 11 12 13 14 15 16 17 18 19 20 21 22 23 24 25 26 27 28 29 30 31 32 33 34 35 36 37 38 39 40 41 42 43 44 45 46 47 48 49 50
621
ASUS44 KMEG 090900
RWRTN
TENNESSEE HOURLY STATE WEATHER ROUNDUP
NATIONAL WEATHER SERVICE MEMPHIS TN
300 AM CST TUE FEB 09 2016

TNZ002-004-019-021-049-052-054-088>092-091000-
WEST TENNESSEE

CITY           SKY/WX    TMP DP  RH WIND       PRES   REMARKS
MEMPHIS INTL   CLOUDY    34  18  52 NW12G24   29.96S WCI  25
NWS MEMPHIS      N/A     32 N/A N/A MISG        N/A
JACKSON        CLOUDY    31  18  58 NW9       29.91F WCI  23
DYERSBURG      MOCLDY    28  18  64 NW12G24   29.94F WCI  18
UNION CITY     CLOUDY    27  18  69 NW9       29.89S WCI  17
PARIS          CLOUDY    25  14  63 W9        29.88R WCI  15
$$

TNZ008-025-027-028-033-062-065-066-091000-
NORTH MIDDLE TENNESSEE

CITY           SKY/WX    TMP DP  RH WIND       PRES   REMARKS
NASHVILLE      FLURRIES  27  19  72 NW7       29.85F WCI  19
CLARKSVILLE    FLURRIES  25  20  81 NW9       29.86F WCI  15
COOKEVILLE     CLOUDY    25  16  68 NW6       29.78F WCI  18
CROSSVILLE     CLOUDY    22  13  68 NW9G21    29.74S WCI  12
$$

TNZ061-075-076-078-094-096-097-091000-
SOUTH MIDDLE TENNESSEE

CITY           SKY/WX    TMP DP  RH WIND       PRES   REMARKS
TULLAHOMA      CLOUDY    25  19  80 NW7       29.82S WCI  17
WINCHESTER     CLOUDY    27  18  69 NW7       29.82F WCI  19
MCMINNVILLE    CLOUDY    23  19  86 NW6       29.82S WCI  16
COLUMBIA       CLOUDY    28  25  86 W3        29.84S
SHELBYVILLE    CLOUDY    27  25  93 N7        29.85S WCI  19
$$

TNZ017-018-042-046-047-091000-
NORTHEAST TENNESSEE

CITY           SKY/WX    TMP DP  RH WIND       PRES   REMARKS
TRI CITIES     CLOUDY    27  21  78 SW13      29.68F WCI  16
$$

TNZ012-013-036-069-073-074-091000-
CENTRAL EAST TENNESSEE

CITY           SKY/WX    TMP DP  RH WIND       PRES   REMARKS
KNOXVILLE      CLOUDY    29  17  61 W10       29.77F WCI  20
OAK RIDGE      CLOUDY    29  19  66 W7        29.78S WCI  22
GATLINBURG     CLOUDY    27  18  69 SW6       29.74F WCI  20
$$

TNZ083-085-099-091000-
SOUTHEAST TENNESSEE

CITY           SKY/WX    TMP DP  RH WIND       PRES   REMARKS
CHATTANOOGA    CLOUDY    32  20  61 NW6       29.82S WCI  26
$$

SKY/WX REPORTED AS FAIR MEANS FEW OR NO CLOUDS BELOW
12 THOUSAND FEET.





USA.gov is the U.S. government's official web portal to all federal, state and local government web resources and services.